Flag for Canada

Past Weather in 52°16'04"N, 113°48'39"W, Canada — Yesterday and Last 2 Weeks

Currently: 57 °F. Fog. (Weather station: Red Deer, Canada). See more current weather

Past Weather in 52°16'04"N, 113°48'39"W — Graph

°F

52°16'04"N, 113°48'39"W Temperature Yesterday

Maximum temperature yesterday: 75 °F (at 12:00 pm)
Minimum temperature yesterday: 50 °F (at 6:00 am)
Average temperature yesterday: 65 °F

High & Low Weather Summary for the Past Weeks

 TemperatureHumidityPressure
High93 °F (Jul 10, 3:00 pm)100% (Jul 1, 12:00 am)30.25 "Hg (Jul 1, 12:00 am)
Low45 °F (Jul 7, 5:36 am)26% (Jul 10, 4:00 pm)29.76 "Hg (Jul 10, 9:00 pm)
Average64 °F71%30.01 "Hg
* Reported Jun 29 10:00 pm — Jul 14 10:00 pm, 52°16'04"N, 113°48'39"W. Weather by CustomWeather, © 2024

Note: Actual official high and low records may vary slightly from our data, if they occured in-between our weather recording intervals... More about our weather records

52°16'04"N, 113°48'39"W Weather History for the Previous 24 Hours

Scroll right to see more
 ConditionsComfort  
Time TempWeatherWind HumidityBarometerVisibility
10:00 pm
Sun, Jul 14
63 °FPassing clouds.6 mph73%30.05 "Hg9 mi
9:00 pm68 °FSunny.2 mph69%30.04 "Hg9 mi
8:00 pm72 °FSunny.No wind57%30.03 "Hg9 mi
7:00 pm72 °FSunny.No wind50%30.03 "Hg9 mi
6:00 pm72 °FSunny.5 mph50%30.04 "Hg9 mi
5:00 pm72 °FSunny.5 mph50%30.05 "Hg9 mi
4:00 pm72 °FPassing clouds.10 mph53%30.05 "Hg9 mi
3:00 pm70 °FSunny.8 mph57%30.06 "Hg9 mi
2:00 pm68 °FPassing clouds.5 mph60%30.08 "Hg9 mi
1:00 pm63 °FMostly cloudy.6 mph73%30.10 "Hg9 mi
12:00 pm61 °FScattered clouds.3 mph83%30.11 "Hg9 mi
11:10 am59 °FBroken clouds.9 mph82%30.11 "Hg9 mi
10:38 am59 °FPartly sunny.15 mph82%30.12 "Hg9 mi
10:13 am59 °FPartly sunny.15 mph82%30.11 "Hg9 mi
9:31 am61 °FPartly sunny.18 mph83%30.10 "Hg9 mi
9:00 am61 °FMostly cloudy.7 mph88%30.08 "Hg9 mi
8:00 am59 °FOvercast.3 mph88%30.05 "Hg9 mi
7:00 am57 °FOvercast.No wind94%30.04 "Hg9 mi
6:00 am55 °FOvercast.No wind94%30.04 "Hg9 mi
5:00 am57 °FOvercast.2 mph94%30.03 "Hg9 mi
4:00 am57 °FOvercast.2 mph94%30.03 "Hg9 mi
3:00 am57 °FMostly cloudy.No wind88%30.03 "Hg9 mi
2:00 am59 °FPassing clouds.3 mph88%30.03 "Hg9 mi
1:00 am61 °FMostly cloudy.3 mph83%30.03 "Hg9 mi
12:00 am61 °FMostly cloudy.2 mph83%30.02 "Hg9 mi
11:00 pm
Sat, Jul 13
63 °FOvercast.6 mph77%30.03 "Hg9 mi
Weather by CustomWeather, © 2024

See weather overview